FW6381 Weather Reports


Display with metric or nautical units.
time (UTC)temp
F
wind
direction
speed
MPH
gust
MPH
rain 1hr
in
rain 24hr
in
rain mn
in
humidity
%
barometer
mb
20260502170504 45 275 9.0 19.0 0.00 0.02 0.00 56 1015.0
20260502164003 46 269 9.0 20.0 0.00 0.03 0.00 57 1015.0
20260502163714 45 274 9.0 20.0 0.00 0.03 0.00 60 1015.1
20260502163005 45 298 8.0 19.0 0.00 0.03 0.00 58 1015.1
20260502162504 45 326 8.0 15.0 0.00 0.03 0.00 59 1015.1
20260502162213 44 325 8.0 17.0 0.00 0.03 0.00 60 1015.1
20260502161714 44 305 10.0 17.0 0.00 0.03 0.00 58 1015.1
20260502161003 45 293 9.0 20.0 0.00 0.03 0.00 58 1015.2
20260502160503 44 316 7.0 18.0 0.00 0.03 0.00 58 1015.2
20260502152003 45 275 8.0 17.0 0.00 0.05 0.00 56 1015.0
20260502151503 44 312 8.0 17.0 0.00 0.05 0.00 57 1015.0
20260502151214 44 320 8.0 18.0 0.00 0.05 0.00 54 1015.1
20260502150503 44 318 8.0 18.0 0.00 0.05 0.00 53 1015.0
20260502130713 41 290 7.0 19.0 0.00 0.05 0.00 70 1015.6
20260502123715 40 273 5.0 13.0 0.00 0.05 0.00 76 1015.8
20260502123005 39 283 5.0 12.0 0.00 0.05 0.00 77 1015.9
20260502122503 39 276 5.0 14.0 0.00 0.05 0.00 78 1015.9
20260502122005 39 265 5.0 14.0 0.00 0.05 0.00 79 1015.7
20260502121505 38 257 5.0 10.0 0.00 0.05 0.00 79 1015.7
20260502121003 38 257 5.0 10.0 0.00 0.05 0.00 80 1015.6
20260502120503 38 242 5.0 10.0 0.00 0.05 0.00 80 1015.6
20260502115714 38 230 5.0 12.0 0.00 0.05 0.00 82 1015.7
20260502115004 37 225 3.0 10.0 0.00 0.05 0.00 84 1015.8
20260502114714 37 219 3.0 8.0 0.00 0.05 0.00 86 1015.6
20260502114004 36 219 4.0 9.0 0.00 0.05 0.00 87 1015.7
20260502113503 35 219 4.0 8.0 0.00 0.05 0.00 88 1015.7
20260502113004 35 217 3.0 8.0 0.00 0.05 0.00 89 1015.7
20260502112714 35 215 2.0 8.0 0.00 0.05 0.00 89 1015.6
20260502112003 34 212 3.0 8.0 0.00 0.05 0.00 90 1015.7
20260502111505 34 207 4.0 8.0 0.00 0.05 0.00 91 1015.6
20260502111003 33 196 4.0 8.0 0.00 0.05 0.00 91 1015.6
20260502110505 33 186 4.0 9.0 0.00 0.05 0.00 91 1015.5
20260502110005 32 201 4.0 9.0 0.00 0.05 0.00 91 1015.5
20260502105503 32 258 3.0 8.0 0.00 0.05 0.00 91 1015.5
20260502105003 32 277 2.0 8.0 0.00 0.05 0.00 91 1015.4
20260502104503 32 284 1.0 4.0 0.00 0.05 0.00 91 1015.3
20260502104005 32 285 1.0 4.0 0.00 0.05 0.00 90 1015.4
20260502103714 32 285 0.0 3.0 0.00 0.05 0.00 90 1015.3
20260502103003 32 0 0.0 0.0 0.00 0.05 0.00 90 1015.2
20260502102503 32 0 0.0 0.0 0.00 0.05 0.00 90 1015.1
20260502102003 32 0 0.0 0.0 0.00 0.05 0.00 90 1015.0
20260502101504 32 0 0.0 0.0 0.00 0.05 0.00 89 1015.0
20260502101003 32 285 1.0 5.0 0.00 0.05 0.00 89 1015.1
20260502100714 32 285 1.0 5.0 0.00 0.05 0.00 89 1015.0
20260502100213 32 284 2.0 5.0 0.00 0.05 0.00 89 1014.9
20260502091503 33 283 3.0 8.0 0.00 0.05 0.00 88 1015.0
20260502091005 33 284 3.0 8.0 0.00 0.05 0.00 88 1014.9
20260502090713 33 285 3.0 8.0 0.00 0.05 0.00 88 1014.8
20260502071506 35 285 5.0 10.0 0.00 0.05 0.00 84 1014.4
20260502071005 35 285 6.0 12.0 0.00 0.05 0.00 84 1014.5
20260502070505 35 283 6.0 12.0 0.00 0.05 0.00 83 1014.6
20260502070006 35 276 7.0 14.0 0.00 0.05 0.00 83 1014.7
20260502065504 35 278 7.0 14.0 0.00 0.05 0.00 83 1014.7
20260502065005 35 282 6.0 14.0 0.00 0.05 0.00 83 1014.8
20260502064712 35 281 5.0 12.0 0.00 0.05 0.00 83 1014.8
20260502064003 35 284 4.0 9.0 0.00 0.05 0.00 82 1014.6
20260502063712 35 284 4.0 8.0 0.00 0.05 0.00 82 1014.7
20260502063213 36 284 3.0 8.0 0.00 0.05 0.00 82 1014.6
20260502062504 36 284 4.0 8.0 0.00 0.05 0.00 82 1014.5
20260502062003 36 284 4.0 8.0 0.00 0.05 0.00 81 1014.6
20260502061714 36 285 4.0 8.0 0.00 0.05 0.00 81 1014.6
20260502061003 36 285 4.0 8.0 0.00 0.05 0.00 81 1014.6
20260502060503 36 286 4.0 10.0 0.00 0.05 0.00 80 1014.5
20260502060003 36 291 4.0 10.0 0.00 0.05 0.00 80 1014.7
20260502055714 37 295 4.0 10.0 0.00 0.05 0.00 80 1014.6
20260502055003 37 300 4.0 9.0 0.00 0.05 0.00 80 1014.7
20260502054505 37 297 4.0 9.0 0.00 0.05 0.00 80 1014.7
20260502054003 37 292 3.0 6.0 0.00 0.05 0.00 79 1014.7
20260502053503 37 292 3.0 6.0 0.00 0.05 0.00 79 1014.7
20260502053003 38 293 4.0 13.0 0.00 0.05 0.00 78 1014.7
20260502052503 38 286 5.0 13.0 0.00 0.05 0.00 78 1014.7
20260502052003 38 285 5.0 13.0 0.00 0.05 0.00 78 1014.7
20260502051503 38 292 5.0 12.0 0.00 0.05 0.00 77 1014.7
20260502051003 38 292 5.0 12.0 0.00 0.05 0.00 77 1014.5
20260502050503 38 291 4.0 10.0 0.00 0.05 0.00 76 1014.5
20260502050005 39 295 4.0 10.0 0.00 0.05 0.00 76 1014.5
20260502045503 39 306 4.0 9.0 0.00 0.05 0.00 76 1014.5
20260502045003 39 312 4.0 9.0 0.00 0.05 0.00 75 1014.4
20260502044714 39 314 4.0 9.0 0.00 0.05 0.00 75 1014.3
20260502044005 40 325 5.0 13.0 0.00 0.05 0.00 75 1014.2
20260502043503 40 327 5.0 13.0 0.00 0.05 0.00 74 1014.1
20260502043003 40 321 6.0 15.0 0.00 0.05 0.00 74 1014.1
20260502042503 40 322 6.0 17.0 0.00 0.05 0.00 72 1014.0
20260502042003 40 312 5.0 17.0 0.00 0.05 0.00 74 1014.0
20260502041504 41 301 6.0 17.0 0.00 0.05 0.00 75 1013.9
20260502041005 41 307 7.0 18.0 0.00 0.05 0.00 75 1014.0
20260502040503 41 317 5.0 18.0 0.00 0.05 0.00 76 1014.0
20260502040003 41 300 4.0 12.0 0.00 0.05 0.00 79 1014.0
20260502035503 41 271 5.0 10.0 0.00 0.05 0.05 80 1014.0
20260502035003 42 270 5.0 9.0 0.00 0.05 0.05 81 1014.0
20260502034715 42 275 5.0 9.0 0.00 0.05 0.05 81 1014.0
20260502034003 42 268 6.0 13.0 0.00 0.05 0.05 81 1014.0
20260502033715 42 265 6.0 13.0 0.00 0.05 0.05 81 1013.9
20260502033005 42 270 6.0 13.0 0.00 0.05 0.05 81 1013.9
20260502032504 42 271 7.0 14.0 0.00 0.05 0.05 82 1013.9
20260502032003 42 270 6.0 14.0 0.00 0.05 0.05 82 1013.9
20260502031503 42 266 6.0 10.0 0.00 0.05 0.05 82 1013.9
20260502031004 42 255 6.0 13.0 0.00 0.05 0.05 82 1013.9
20260502030503 42 249 6.0 13.0 0.00 0.05 0.05 82 1013.9
20260502030003 42 244 5.0 13.0 0.00 0.05 0.05 82 1013.9
20260502025503 42 225 5.0 12.0 0.00 0.05 0.05 82 1013.9
20260502025004 42 219 6.0 12.0 0.00 0.05 0.05 82 1013.9
20260502024503 42 232 5.0 12.0 0.00 0.05 0.05 82 1014.0
20260502024003 42 238 5.0 10.0 0.00 0.05 0.05 82 1013.9
20260502023503 42 226 5.0 10.0 0.00 0.05 0.05 82 1014.0
20260502023004 42 220 4.0 10.0 0.00 0.05 0.05 82 1013.9
20260502022503 42 228 5.0 13.0 0.00 0.05 0.05 81 1014.0
20260502022003 42 226 6.0 13.0 0.00 0.05 0.05 81 1014.1
20260502021713 42 228 7.0 13.0 0.00 0.05 0.05 81 1013.9
20260502021003 42 233 5.0 13.0 0.00 0.05 0.05 81 1014.0
20260502020503 42 232 5.0 9.0 0.00 0.05 0.05 80 1013.9
20260502020003 42 230 5.0 14.0 0.00 0.05 0.05 80 1013.9
20260502015714 42 230 5.0 14.0 0.00 0.05 0.05 80 1013.9
20260502015003 42 234 6.0 14.0 0.00 0.05 0.05 81 1013.8
20260502014713 42 234 6.0 13.0 0.00 0.05 0.05 81 1013.8
20260502014003 42 222 5.0 10.0 0.00 0.05 0.05 82 1013.7
20260502013504 42 236 6.0 13.0 0.00 0.05 0.05 82 1013.7
20260502013003 42 246 6.0 14.0 0.00 0.05 0.05 83 1013.5
20260502012503 42 242 5.0 14.0 0.00 0.05 0.05 83 1013.6
20260502012215 42 244 4.0 12.0 0.00 0.05 0.05 83 1013.6
20260502011503 42 245 5.0 12.0 0.00 0.05 0.05 84 1013.5
20260502011213 42 241 5.0 12.0 0.00 0.05 0.05 84 1013.5
20260502010714 42 242 5.0 10.0 0.00 0.05 0.05 84 1013.5
20260502010004 42 251 6.0 13.0 0.00 0.05 0.05 84 1013.5
20260502005503 43 238 5.0 13.0 0.00 0.05 0.05 84 1013.4
20260502005003 43 226 5.0 12.0 0.00 0.05 0.05 84 1013.4
20260502004503 43 229 6.0 13.0 0.00 0.05 0.05 84 1013.2
20260502004003 43 232 5.0 13.0 0.00 0.05 0.05 83 1013.1
20260502003714 43 237 5.0 13.0 0.00 0.05 0.05 83 1013.1
20260502003005 43 234 6.0 12.0 0.00 0.05 0.05 82 1012.9
20260502002714 43 227 5.0 12.0 0.00 0.05 0.05 82 1012.9
20260502002003 44 230 5.0 13.0 0.00 0.05 0.05 82 1012.8
20260502001503 44 246 5.0 13.0 0.00 0.05 0.05 82 1012.7
20260502001215 44 255 5.0 13.0 0.00 0.05 0.05 81 1012.6
20260502000714 44 263 4.0 10.0 0.00 0.05 0.05 81 1012.5
20260502000003 44 250 5.0 12.0 0.00 0.06 0.05 80 1012.5
20260501235503 44 244 5.0 12.0 0.00 0.07 0.05 80 1012.5
20260501235005 45 245 6.0 12.0 0.00 0.07 0.05 79 1012.5
20260501234505 45 248 6.0 12.0 0.00 0.09 0.05 78 1012.4
20260501234005 45 248 6.0 12.0 0.00 0.09 0.05 78 1012.4
20260501233503 45 257 6.0 12.0 0.00 0.09 0.05 78 1012.4
20260501233005 46 259 6.0 13.0 0.00 0.09 0.05 77 1012.3
20260501232716 46 253 6.0 13.0 0.00 0.09 0.05 77 1012.4
20260501232003 46 248 6.0 13.0 0.00 0.09 0.05 76 1012.3
20260501231505 46 246 5.0 13.0 0.00 0.09 0.05 76 1012.2
20260501231003 47 252 5.0 13.0 0.00 0.09 0.05 76 1012.1
20260501230503 47 260 5.0 12.0 0.00 0.09 0.05 76 1012.1
20260501230215 47 259 5.0 12.0 0.00 0.09 0.05 76 1012.2
20260501225503 47 246 3.0 10.0 0.00 0.09 0.05 75 1012.0
20260501225003 47 246 4.0 10.0 0.00 0.09 0.05 75 1012.0
20260501224503 47 239 4.0 9.0 0.00 0.09 0.05 76 1012.1
20260501224003 47 231 4.0 9.0 0.00 0.09 0.05 76 1012.1
20260501223503 47 231 4.0 9.0 0.00 0.09 0.05 76 1012.0
20260501223217 47 232 3.0 9.0 0.00 0.09 0.05 76 1012.1
20260501222503 47 232 3.0 8.0 0.00 0.09 0.05 77 1012.0
20260501222003 47 231 3.0 8.0 0.00 0.09 0.05 77 1012.0
20260501221713 47 228 2.0 8.0 0.00 0.09 0.05 78 1012.0
20260501221005 47 220 2.0 6.0 0.00 0.09 0.05 78 1012.0
20260501220505 47 219 2.0 4.0 0.00 0.09 0.05 77 1012.0
20260501220003 47 219 2.0 5.0 0.00 0.09 0.05 78 1012.0
20260501215503 46 221 3.0 5.0 0.00 0.09 0.05 78 1011.9
20260501215003 46 221 3.0 8.0 0.00 0.09 0.05 78 1011.9
20260501214503 46 217 4.0 8.0 0.00 0.09 0.05 78 1011.9
20260501214003 46 214 4.0 8.0 0.00 0.09 0.05 78 1012.0
20260501213505 46 212 4.0 8.0 0.00 0.09 0.05 79 1012.0
20260501213214 46 206 3.0 6.0 0.00 0.09 0.05 79 1012.0
20260501212713 46 197 3.0 8.0 0.00 0.09 0.05 80 1011.9
20260501212003 46 180 4.0 8.0 0.00 0.09 0.05 80 1012.0
20260501211503 46 169 5.0 9.0 0.00 0.09 0.05 81 1011.9
20260501211003 45 188 5.0 12.0 0.00 0.09 0.05 82 1011.9
20260501210503 45 206 5.0 12.0 0.00 0.09 0.05 82 1011.8
20260501210003 45 176 5.0 12.0 0.00 0.09 0.05 82 1011.8
20260501205504 45 159 7.0 13.0 0.00 0.09 0.05 83 1011.9
20260501205003 45 159 6.0 13.0 0.00 0.09 0.05 84 1011.8
20260501204503 45 165 6.0 13.0 0.00 0.09 0.05 86 1011.7
20260501204003 45 166 6.0 12.0 0.00 0.09 0.05 86 1011.7
20260501203503 45 165 7.0 14.0 0.00 0.09 0.05 87 1011.7
20260501203003 44 172 8.0 14.0 0.00 0.09 0.05 87 1011.8
20260501202503 44 178 7.0 14.0 0.00 0.09 0.05 88 1011.8
20260501202004 44 185 6.0 13.0 0.00 0.09 0.05 89 1011.9
20260501201714 44 190 6.0 13.0 0.00 0.09 0.05 89 1011.9
20260501201003 44 181 4.0 9.0 0.01 0.09 0.05 90 1012.0
20260501200505 44 157 4.0 10.0 0.01 0.09 0.05 90 1011.9
20260501200003 44 131 4.0 10.0 0.01 0.09 0.05 91 1012.0
20260501195712 43 117 4.0 10.0 0.01 0.09 0.05 90 1012.0
20260501195003 43 50 2.0 8.0 0.01 0.09 0.05 91 1012.1
20260501194504 43 343 1.0 4.0 0.01 0.09 0.05 91 1012.3
20260501194005 43 342 1.0 4.0 0.01 0.09 0.05 91 1012.4
20260501193503 42 342 1.0 4.0 0.02 0.09 0.05 92 1012.4
20260501193003 43 342 1.0 3.0 0.02 0.09 0.05 92 1012.4
20260501192503 42 342 1.0 4.0 0.02 0.09 0.05 92 1012.5
20260501192004 42 342 1.0 5.0 0.02 0.09 0.05 92 1012.4
20260501191504 42 342 2.0 5.0 0.02 0.09 0.05 92 1012.4
20260501191004 42 343 2.0 5.0 0.01 0.08 0.03 93 1012.5
20260501190503 42 343 3.0 5.0 0.01 0.08 0.03 92 1012.6
20260501190005 42 342 3.0 5.0 0.01 0.08 0.03 92 1012.5
20260501185503 42 341 3.0 6.0 0.01 0.08 0.03 92 1012.7
20260501185213 42 340 3.0 6.0 0.01 0.08 0.03 92 1012.8
20260501184505 42 338 2.0 6.0 0.01 0.08 0.03 92 1012.9
20260501184213 42 338 2.0 6.0 0.01 0.08 0.03 92 1012.8
20260501183503 41 335 4.0 8.0 0.00 0.07 0.02 92 1012.9
20260501183003 42 332 4.0 8.0 0.00 0.07 0.02 92 1013.0
20260501182714 42 330 3.0 6.0 0.00 0.07 0.02 92 1013.0
20260501182003 42 324 3.0 5.0 0.00 0.07 0.02 92 1012.9
20260501181503 41 323 3.0 6.0 0.00 0.07 0.02 91 1012.9
20260501181003 41 324 3.0 6.0 0.00 0.07 0.02 91 1013.0
20260501180503 41 325 3.0 8.0 0.00 0.07 0.02 91 1013.0
20260501180213 41 326 3.0 8.0 0.00 0.07 0.02 91 1013.0
20260501175503 42 310 3.0 8.0 0.00 0.07 0.02 91 1013.1
20260501175213 42 297 3.0 8.0 0.00 0.07 0.02 90 1013.1